Regional Weather Roundup
Issued by NWS

Home | Current Version | Previous Version | Text Only | Print | Product List | Glossary On
Versions: 1 2 3 4 5 6 7 8 9 10 11 12 13 14 15 16 17 18 19 20 21 22 23 24 25 26 27 28 29 30 31 32 33 34 35 36 37 38 39 40 41 42 43 44 45 46 47 48 49 50
000
ASUS43 KLSX 272357
RWRMO

WEATHER SUMMARY FOR MISSOURI
NATIONAL WEATHER SERVICE SPRINGFIELD MO
700 PM CDT THU AUG 27 2015

NOTE: "FAIR" INDICATES FEW OR NO CLOUDS BELOW 12,000 FEET WITH NO
       SIGNIFICANT WEATHER AND/OR OBSTRUCTIONS TO VISIBILITY.
       CURRENT SKY AND/OR WEATHER CONDITIONS ARE NOT AVAILABLE FOR
       CHILLICOTHE AND FARMINGTON.

MOZ001>031-035>038-043-044-053-054-280100-
...NORTHERN AND WESTERN MISSOURI...

CITY           SKY/WX    TMP DP  RH WIND       PRES   REMARKS
KANSAS CTY INT PTSUNNY   73  64  73 SE12      29.97S
6HR MIN TEMP:  68; 6HR MAX TEMP:  77; 6HR PCP: TRACE;

LEE`S SUMMIT   PTCLDY    72  65  78 SE9       29.99S
6HR MIN TEMP:  64; 6HR MAX TEMP:  73; 6HR PCP:  0.01;

ST JOSEPH      PTSUNNY   74  66  76 S6        29.94F
6HR MIN TEMP:  67; 6HR MAX TEMP:  80;


$$
MOZ066>068-077>081-088>096-101>105-280100-
...SOUTHWEST MISSOURI...

CITY           SKY/WX    TMP DP  RH WIND       PRES   REMARKS
SPRINGFIELD    CLOUDY    75  63  66 SE10      30.02F
6HR MIN TEMP:  73; 6HR MAX TEMP:  81;

JOPLIN         PTCLDY    77  68  73 SE8       30.01F
6HR MIN TEMP:  73; 6HR MAX TEMP:  81;


$$
MOZ032>034-039>042-045>050-055>058-069>072-280100-
...CENTRAL MISSOURI...

CITY           SKY/WX    TMP DP  RH WIND       PRES   REMARKS
COLUMBIA       NOT AVBL
JEFFERSON CITY CLOUDY    74  62  66 E6        30.04F
6HR MIN TEMP:  74; 6HR MAX TEMP:  80;

ROLLA          CLOUDY    73  61  65 E5        30.07R
6HR MIN TEMP:  73; 6HR MAX TEMP:  79;

SEDALIA        PTCLDY    75  63  66 E8        30.04F
6HR MIN TEMP:  74; 6HR MAX TEMP:  77;


$$
MOZ051-052-059>065-280100-
...EAST CENTRAL MISSOURI...

CITY           SKY/WX    TMP DP  RH WIND       PRES   REMARKS
ST LOUIS INTL  MOCLDY    76  54  46 SE7       30.09S
6HR MIN TEMP:  76; 6HR MAX TEMP:  80;


$$
MOZ072>076-082>087-097>100-106>115-280100-
...SOUTH CENTRAL AND SOUTHEAST MISSOURI...

CITY           SKY/WX    TMP DP  RH WIND       PRES   REMARKS
CAPE GIRARDEAU CLEAR     76  60  57 E5        30.07F
6HR MIN TEMP:  76; 6HR MAX TEMP:  82;

POPLAR BLUFF   PTCLDY    74  64  71 CALM      30.06F
6HR MIN TEMP:  74; 6HR MAX TEMP:  82;

WEST PLAINS    CLOUDY    72  62  71 CALM      30.10F
6HR MIN TEMP:  72; 6HR MAX TEMP:  78;


$$



USA.gov is the U.S. government's official web portal to all federal, state and local government web resources and services.